Regional Weather Roundup
Issued by NWS

Home | Current Version | Previous Version | Text Only | Print | Product List | Glossary Off
Versions: 1 2 3 4 5 6 7 8 9 10 11 12 13 14 15 16 17 18 19 20 21 22 23 24 25 26 27 28 29 30 31 32 33 34 35 36 37 38 39 40 41 42 43 44 45 46 47 48 49 50

000
ASUS43 KDMX 241006
RWRIA

WEATHER ROUNDUP FOR IOWA
NATIONAL WEATHER SERVICE DES MOINES IA
500 AM CDT WED MAY 24 2017

NOTE: "FAIR" INDICATES FEW OR NO CLOUDS BELOW 12,000 FEET WITH NO
SIGNIFICANT WEATHER AND/OR OBSTRUCTIONS TO VISIBILITY.

* - THESE STATIONS ARE NOT NWS STATIONS...THUS NOT UNDER NWS
QUALITY CONTROL.  THEY ALSO DO NOT REPORT WEATHER SUCH
AS PRECIPITATION OR FOG.

IAZ001>003-012>014-020>022-031>034-043>046-241100-
   NORTHWEST IOWA

CITY           SKY/WX    TMP DP  RH WIND       PRES   REMARKS
CARROLL *      CLOUDY    52  50  93 N13       29.73S
CHEROKEE *     CLEAR     44  44 100 N6        29.78S
DENISON *      PTCLDY    46  45  93 NW6       29.77S
LE MARS *      CLEAR     46  45  93 CALM      29.81S
ORANGE CITY *  CLEAR     45  45 100 N7        29.79F
SHELDON *      CLEAR     43  43 100 NW8         N/A
SIOUX CITY     CLEAR     45  45 100 NW9       29.80F
SPENCER        CLEAR     46  44  93 N10       29.77S
STORM LAKE *   CLEAR     46  45  93 N13       29.76S
$$

IAZ055>058-069>071-079>083-090>094-241100-
   SOUTHWEST IOWA

CITY           SKY/WX    TMP DP  RH WIND       PRES   REMARKS
ATLANTIC *     CLOUDY    50  48  93 N10G16    29.73S
AUDUBON *      MOCLDY    50  46  87 N9        29.73F
CLARINDA *     CLOUDY    52  48  87 NW9       29.75S
COUNCIL BLFS * CLOUDY    48  48 100 NW12      29.76S
CRESTON *      LGT RAIN  50  50 100 NW9       29.71S
HARLAN  *      PTCLDY    48  48 100 NW13      29.77F
LAMONI         CLOUDY    47  46  97 W6        29.69S
RED OAK *      CLOUDY    52  48  87 N10G17    29.74F
SHENANDOAH *   CLOUDY    52  48  87 NW10G17   29.75F
$$

IAZ047>049-059>061-072>074-084-241100-
   CENTRAL IOWA

CITY           SKY/WX    TMP DP  RH WIND       PRES   REMARKS
AMES           CLOUDY    52  50  93 N13       29.69R
ANKENY *       LGT RAIN  52  50  93 N8G14     29.69S
BOONE *        LGT RAIN  52  52 100 N13       29.69S
CHARITON *     CLOUDY    48  46  93 CALM      29.67S FOG
DES MOINES     LGT RAIN  52  50  93 N7        29.68S
GRINNELL*      CLOUDY    49  48  96 NW5       29.68S
KNOXVILLE *    CLOUDY    50  48  93 NW3       29.66S
MARSHALLTOWN   CLOUDY    52  51  97 N12       29.67R
NEWTON *       CLOUDY    52  50  93 N7        29.66S
PELLA *        MOCLDY    48  47  97 NW3       29.68S
PERRY *        CLOUDY    52  50  94 N12       29.70F
$$

IAZ004>006-015-016-023>025-035-036-241100-
   NORTH CENTRAL IOWA

CITY           SKY/WX    TMP DP  RH WIND       PRES   REMARKS
ALGONA *       CLOUDY    50  48  93 N9G16     29.74S
CLARION *      CLOUDY    50  50 100 N12       29.72S
ESTHERVILLE    CLEAR     44  44 100 N10       29.76F
FORT DODGE *   CLEAR     48  46  93 N7        29.73S
MASON CITY     CLOUDY    49  45  86 N14       29.73S
FOREST CITY *    N/A     46  43  87 N10       29.74S
WEBSTER CITY * CLOUDY    52  48  87 N15       29.69S
IOWA FALLS *   LGT RAIN  52  49  90 N10       29.70S
$$

IAZ007>011-017>019-026>030-037>042-050>054-066-241100-
   NORTHEAST IOWA

CITY           SKY/WX    TMP DP  RH WIND       PRES   REMARKS
CEDAR RAPIDS   CLOUDY    50  50 100 N3        29.63F
CHARLES CITY * CLOUDY    50  48  93 NE10      29.71S
CLINTON *      FOG       49  49 100 N7        29.63F VSB 1
DECORAH *      CLOUDY    50  46  87 NE7       29.69S
DUBUQUE        CLOUDY    52  51  97 NE7       29.64F FOG
MONTICELLO *   CLOUDY    54  52  94 N7        29.64F
OELWEIN *      CLOUDY    52  52 100 NE13      29.67F
WATERLOO       LGT RAIN  52  49  89 N10       29.67S
$$

IAZ064-065-067-068-078-241100-
   EAST CENTRAL IOWA

CITY           SKY/WX    TMP DP  RH WIND       PRES   REMARKS
DAVENPORT      PTCLDY    47  45  93 N7        29.62F
IOWA CITY      CLOUDY    50  47  89 W5        29.65F
MT. PLEASANT * PTCLDY    48  48  98 NW5       29.64F
MUSCATINE *    MOCLDY    50  48  93 NW6       29.63F
QUAD CITIES    PTCLDY    48  45  89 CALM      29.62F
$$

IAZ062-063-075>077-085>089-095>099-241100-
   SOUTHEAST IOWA

CITY           SKY/WX    TMP DP  RH WIND       PRES   REMARKS
BURLINGTON     CLEAR     48  47  96 NW6       29.62F
FAIRFIELD *    PTCLDY    46  45  93 NW7       29.64F
FORT MADISON * CLEAR     46  46 100 NW3       29.64S
KEOKUK *       CLEAR     46  46 100 NW5       29.63S
OSKALOOSA *    MOCLDY    45  44  97 NW5       29.66F
CENTERVILLE *  CLOUDY    45  45 100 CALM      29.68S
OTTUMWA        MOCLDY    45  45 100 NW7       29.66S
WASHINGTON *   MOCLDY    48  48 100 NW6       29.65F
$$

ABBREVIATIONS USED IN REMARKS
   TC - TEMPERATURES IN CELSIUS
  WCI - WIND CHILL INDEX
   HX - HEAT INDEX
  VSB - VISIBILITY
$$





USA.gov is the U.S. government's official web portal to all federal, state and local government web resources and services.